Location: Franzen
(48.6167°N, 15.3833°E)
Time: 16:47:35
(UTC+00:00)

A-11 Canister half - Pass Details

Date: 04 August 2021
Orbit: 1515 x 1685 km, 47.2° (Epoch: 19 September)

Event Time Altitude Azimuth Distance (km) Brightness Sun altitude
Rises 21:55:46 0° 290° (WNW) 4,909 12.2 -22.6°
Reaches altitude 10° 21:59:23 10° 281° (W) 3,934 11.5 -22.8°
Maximum altitude 22:07:42 30° 225° (SW) 2,670 10.0 -23.2°
Enters shadow 22:10:17 27° 201° (SSW) 2,820 9.9 -23.3°
Drops below altitude 10° 22:16:01 10° 169° (S) 3,933 - -23.5°
Sets 22:19:40 0° 160° (SSE) 4,908 - -23.6°
